Knoxville, TN

5:24 AM EDT on September 16, 2019 (GMT -0400)
McGhee Tyson

Weather History for KTYS - July, 2019

Change the Weather History Date:

Saturday, July 13, 2019

  Actual Average Record
Temperature  
Mean Temperature 81 °F 79 °F  
Max Temperature 89 °F 88 °F 100 °F (1936)
Min Temperature 73 °F 69 °F 55 °F (1918)
Degree Days  
Heating Degree Days 0 0  
Month to date heating degree days 0 0  
Since 1 June heating degree days 0 4  
Since 1 July heating degree days 0 0  
Cooling Degree Days 16 14  
Month to date cooling degree days 212 172  
Year to date cooling degree days 791 639  
Since 1 June cooling degree days 491 477  
Growing Degree Days 31 (Base 50)    
Moisture  
Dew Point 72 °F    
Average Humidity 75    
Maximum Humidity 94    
Minimum Humidity 56    
Precipitation  
Precipitation 0.02 in 0.17 in 2.95 in (1990)
Month to date precipitation 1.18 2.16  
Year to date precipitation 40.40 27.41  
Snow  
Snow 0.00 in 0.00 in - ()
Month to date snowfall 0.0 0.0  
Since 1 June snowfall 0.0 0.0  
Since 1 July snowfall 0.0 0.0  
Snow Depth 0.00 in    
Sea Level Pressure  
Sea Level Pressure 30.03 in    
Wind  
Wind Speed 8 mph (SW)    
Max Wind Speed 25 mph    
Max Gust Speed 31 mph    
Visibility 10 miles    
Events Rain , Thunderstorm    
T = Trace of Precipitation, MM = Missing Value Source: NWS Daily Summary

Daily Weather History Graph

Daily Weather History Graph

Search for Another Location

Airport or City:

Astronomy

Jul. 13, 2019 Rise Set
Actual Time 6:29 AM EDT 8:53 PM EDT
Civil Twilight 6:00 AM EDT 9:22 PM EDT
Nautical Twilight 5:23 AM EDT 9:59 PM EDT
Astronomical Twilight 4:44 AM EDT 10:38 PM EDT
Moon 6:15 PM EDT (7/13) 3:47 AM EDT (7/13)
Length of Visible Light 15h 22m
Length of Day
14h 23m
Waxing Gibbous, 90% of the Moon is Illuminated
Jul 13
Waxing Gibbous
Jul 16
Full
Jul 24
Last Quarter
Jul 31
New
Aug 7
First Quarter

Hourly Weather History & Observations

Time (EDT) Temp. Heat Index Dew Point Humidity Pressure Visibility Wind Dir Wind Speed Gust Speed Precip Events Conditions
12:53 AM 78.1 °F - 73.9 °F 87% 29.94 in 10.0 mi Calm Calm - N/A   Overcast
1:53 AM 77.0 °F - 73.9 °F 90% 29.94 in 10.0 mi Calm Calm - N/A   Overcast
2:53 AM 77.0 °F - 73.0 °F 88% 29.94 in 10.0 mi North 3.5 mph - N/A   Clear
3:53 AM 75.9 °F - 73.0 °F 91% 29.95 in 10.0 mi Calm Calm - N/A   Clear
4:37 AM 75.9 °F - 73.0 °F 91% 29.99 in 10.0 mi South 5.8 mph - N/A   Mostly Cloudy
4:53 AM 75.0 °F - 73.0 °F 94% 29.96 in 10.0 mi South 4.6 mph - N/A   Mostly Cloudy
5:00 AM 75.0 °F - 72.0 °F 90% 30.00 in 10.0 mi South 4.6 mph - N/A   Scattered Clouds
5:53 AM 75.0 °F - 72.0 °F 90% 29.98 in 10.0 mi SSW 9.2 mph - N/A   Scattered Clouds
6:42 AM 75.0 °F - 73.0 °F 94% 30.03 in 10.0 mi SSW 5.8 mph - N/A   Overcast
6:53 AM 75.0 °F - 73.0 °F 94% 30.00 in 8.0 mi SW 6.9 mph - N/A   Overcast
7:53 AM 77.0 °F - 73.9 °F 90% 30.02 in 9.0 mi SW 4.6 mph - N/A   Mostly Cloudy
8:53 AM 80.1 °F 84.2 °F 73.0 °F 79% 30.04 in 10.0 mi SW 6.9 mph - N/A   Mostly Cloudy
9:53 AM 82.0 °F 86.7 °F 72.0 °F 71% 30.05 in 10.0 mi SW 10.4 mph - N/A   Mostly Cloudy
10:53 AM 82.0 °F 86.3 °F 71.1 °F 69% 30.06 in 10.0 mi SW 11.5 mph - N/A   Mostly Cloudy
11:53 AM 84.0 °F 89.6 °F 72.0 °F 67% 30.05 in 10.0 mi SW 6.9 mph - N/A   Mostly Cloudy
12:53 PM 87.1 °F 92.8 °F 71.1 °F 59% 30.04 in 10.0 mi WSW 10.4 mph - N/A   Scattered Clouds
1:53 PM 89.1 °F 96.0 °F 72.0 °F 57% 30.02 in 10.0 mi SW 16.1 mph - N/A   Scattered Clouds
2:20 PM 88.0 °F 94.7 °F 72.0 °F 59% 30.05 in 10.0 mi SW 12.7 mph - N/A Thunderstorm Scattered Clouds
2:22 PM 88.0 °F 94.7 °F 72.0 °F 59% 30.05 in 10.0 mi SW 15.0 mph - N/A Thunderstorm Mostly Cloudy
2:33 PM 88.0 °F 94.7 °F 72.0 °F 59% 30.05 in 10.0 mi SW 12.7 mph - N/A Thunderstorm Thunderstorm
2:39 PM 86.0 °F 92.2 °F 72.0 °F 63% 30.04 in 10.0 mi SSW 13.8 mph - N/A   Mostly Cloudy
2:43 PM 86.0 °F 92.2 °F 72.0 °F 63% 30.04 in 10.0 mi SW 13.8 mph - N/A Thunderstorm Thunderstorm
2:53 PM 87.1 °F 93.6 °F 72.0 °F 61% 30.02 in 10.0 mi West 11.5 mph - N/A Thunderstorm Thunderstorm
3:05 PM 87.1 °F 93.6 °F 72.0 °F 61% 30.05 in 10.0 mi WSW 11.5 mph - N/A Thunderstorm Thunderstorm
4:08 PM 78.1 °F - 71.1 °F 79% 30.05 in 9.0 mi SSW 11.5 mph - 0.00 in Rain , Thunderstorm Light Rain
4:27 PM 84.0 °F 89.6 °F 72.0 °F 67% 30.06 in 10.0 mi South 6.9 mph - 0.00 in   Mostly Cloudy
4:53 PM 82.0 °F 87.4 °F 73.0 °F 74% 30.02 in 10.0 mi SSE 9.2 mph - 0.00 in   Mostly Cloudy
5:53 PM 86.0 °F 93.0 °F 73.0 °F 65% 30.01 in 10.0 mi South 4.6 mph - N/A   Scattered Clouds
6:53 PM 82.9 °F 88.8 °F 73.0 °F 72% 30.02 in 10.0 mi SW 9.2 mph - N/A   Mostly Cloudy
7:53 PM 78.1 °F - 68.0 °F 71% 30.07 in 10.0 mi SW 18.4 mph 25.3 mph 0.00 in Thunderstorm Overcast
8:09 PM 75.9 °F - 68.0 °F 76% 30.11 in 10.0 mi SW 19.6 mph 28.8 mph 0.00 in Rain , Thunderstorm Light Thunderstorms and Rain
8:53 PM 73.9 °F - 70.0 °F 87% 30.09 in 10.0 mi WSW 6.9 mph - 0.00 in Rain , Thunderstorm Light Thunderstorms and Rain
9:12 PM 73.0 °F - 70.0 °F 90% 30.12 in 10.0 mi SSW 11.5 mph - 0.00 in Rain Light Rain
9:53 PM 73.0 °F - 70.0 °F 90% 30.10 in 10.0 mi SSW 10.4 mph - 0.01 in Rain Light Rain
10:53 PM 73.0 °F - 70.0 °F 90% 30.13 in 10.0 mi SW 9.2 mph - 0.00 in   Overcast
11:53 PM 73.9 °F - 69.1 °F 85% 30.13 in 10.0 mi SSW 8.1 mph - 0.00 in   Overcast